This is the latest recevied weather packets stored in our database for station/object KE5OYL. If no packets are shown the sender has not sent any weather packets the latest 10 day(s).
| Time | Temp. | Humidity | Pressure | Rain* | Wind** | Luminosity | Snow |
|---|---|---|---|---|---|---|---|
| 1787843312 | 30° C | 66% | 1016.3 hPa | 0 mm | - | 420 W/m² | - |
| 1787843007 | 30° C | 67% | 1016.2 hPa | 0 mm | - | 405 W/m² | - |
| 1787842706 | 30° C | 67% | 1016.1 hPa | 0 mm | - | 392 W/m² | - |
| 1787842402 | 30° C | 67% | 1016.1 hPa | 0 mm | - | 375 W/m² | - |
| 1787842101 | 30.56° C | 66% | 1016.1 hPa | 0 mm | - | 359 W/m² | - |
| 1787841797 | 30° C | 67% | 1016.1 hPa | 0 mm | - | 340 W/m² | - |
| 1787841493 | 30° C | 67% | 1016 hPa | 0 mm | - | 325 W/m² | - |
| 1787841191 | 29.44° C | 68% | 1016 hPa | 0 mm | - | 308 W/m² | - |
| 1787840887 | 29.44° C | 68% | 1016.1 hPa | 0 mm | - | 289 W/m² | - |
| 1787840582 | 28.89° C | 69% | 1016.1 hPa | 0 mm | - | 272 W/m² | - |
| 1787840277 | 28.89° C | 69% | 1016.1 hPa | 0 mm | - | 263 W/m² | - |
| 1787839976 | 28.89° C | 70% | 1016.1 hPa | 0 mm | - | 248 W/m² | - |
| 1787839672 | 28.89° C | 70% | 1016.1 hPa | 0 mm | - | 230 W/m² | - |
| 1787839372 | 28.89° C | 70% | 1016.2 hPa | 0 mm | - | 212 W/m² | - |
| 1787839066 | 28.89° C | 70% | 1016 hPa | 0 mm | - | 197 W/m² | - |
| 1787838765 | 28.33° C | 71% | 1016.2 hPa | 0 mm | - | 182 W/m² | - |
| 1787838465 | 28.89° C | 70% | 1016.1 hPa | 0 mm | - | 163 W/m² | - |
| 1787838162 | 28.33° C | 70% | 1016.2 hPa | 0 mm | - | 159 W/m² | - |
| 1787837853 | 28.33° C | 71% | 1015.9 hPa | 0 mm | - | 147 W/m² | - |
| 1787837553 | 28.33° C | 71% | 1015.8 hPa | 0 mm | - | 136 W/m² | - |
| 1787837247 | 28.33° C | 71% | 1015.8 hPa | 0 mm | - | 124 W/m² | - |
| 1787836947 | 28.33° C | 71% | 1015.7 hPa | 0 mm | - | 113 W/m² | - |
| 1787836642 | 27.78° C | 73% | 1015.8 hPa | 0 mm | - | 101 W/m² | - |
| 1787836341 | 28.33° C | 72% | 1016.1 hPa | 0 mm | - | 90 W/m² | - |
| 1787836037 | 27.78° C | 72% | 1015.6 hPa | 0 mm | - | 77 W/m² | - |
* Rain latest hour (hover to see other rain measurements)
** Current wind speed in m/s (hover to see current wind gust speed)